Home > Weather > Stäfa > Past weeks

Flag for Switzerland Past Weather in Stäfa, Zurich, Switzerland — Yesterday and Last 2 Weeks

Now
75 °F

Mild.


Feels Like: 77 °F
Forecast: 62 / 81 °F
Wind: 8 mph from South

Location: Zuerich-Fluntern

Current Time: Jul 25, 2016 at 4:05:36 PM

Latest Report: Jul 25, 2016 at 3:00 PM


Visibility: N/A

Pressure: 30.05 "Hg

Humidity: 65%

Dew Point: 62 °F

Location of StäfaLocation

Past Weather in Stäfa — Graph

°F

Stäfa Temperature Yesterday

Maximum temperature yesterday: 77 °F (at 3:00 PM)
Minimum temperature yesterday: 63 °F (at 5:00 AM)
Average temperature yesterday: 70 °F

High & Low Weather Summary for the Past Weeks

 TemperatureHumidityPressure
High88 °F (Jul 20, 5:00 PM)100% (Jul 11, 11:00 AM)30.37 "Hg (Jul 11, 11:00 AM)
Low47 °F (Jul 16, 5:00 AM)32% (Jul 20, 7:00 PM)29.82 "Hg (Jul 10, 7:00 PM)
Average66 °F75%30.07 "Hg
* Reported Jul 10 2:00 PM — Jul 25 2:00 PM, Stäfa, Weather by CustomWeather, © 2016

Note: Actual official high and low records may vary slightly from our data, if they occured in-between our weather recording intervals... More about our weather records

Advertising

Stäfa Weather History for the Previous 24 Hours

Scroll right to see more
 ConditionsComfort  
Time TempWeatherWind HumidityBarometerVisibility
2:00 PM
Mon, Jul 25
76 °FMild.3 mph59%30.04 "HgN/A
1:00 PM74 °FMild.5 mph66%30.06 "HgN/A
12:00 PM73 °FMild.5 mph72%30.07 "HgN/A
11:00 AM69 °FMild.2 mph82%30.09 "HgN/A
10:00 AM71 °FMild.2 mph78%30.09 "HgN/A
9:00 AM67 °FMild.2 mph86%30.11 "HgN/A
8:00 AM66 °FOvercast.1 mph88%30.11 "HgN/A
7:00 AM65 °FMild.1 mph91%30.10 "HgN/A
6:00 AM64 °FMild.1 mph94%30.11 "HgN/A
5:00 AM64 °FMild.No wind92%30.10 "HgN/A
4:00 AM64 °FMild.1 mph92%30.11 "HgN/A
3:00 AM64 °FMild.1 mph91%30.11 "HgN/A
2:00 AM65 °FMild.1 mph89%30.11 "HgN/A
1:00 AM66 °FMild.2 mph87%30.11 "HgN/A
12:00 AM66 °FMild.2 mph88%30.12 "HgN/A
11:00 PM
Sun, Jul 24
67 °FMild.2 mph85%30.11 "HgN/A
10:00 PM70 °FMild.2 mph73%30.08 "HgN/A
9:00 PM72 °FMild.5 mph66%30.05 "HgN/A
8:00 PM75 °FScattered clouds.5 mph62%30.03 "HgN/A
7:00 PM75 °FMild.5 mph59%30.01 "HgN/A
6:00 PM77 °FWarm.2 mph53%30.00 "HgN/A
5:00 PM75 °FMild.2 mph58%30.02 "HgN/A
4:00 PM76 °FMild.2 mph54%30.03 "HgN/A
Weather by CustomWeather, © 2016

See weather overviewHow to use our weather pages